User: anonymous   Login
Location: Unspecified
(0.0000°N, 0.0000°E)
Time: 12:34:16
(UTC+00:00)
Language:

Oscar 11 - Orbit

View from above orbital plane
View from above orbital plane
View from above satellite
View from above satellite

Ground track
Ground track

The orbit data is extracted from the following two-line orbital elements,

1 14781U 84021B   18169.68717528 +.00000067 +00000-0 +14433-4 0  9997
2 14781 097.6488 205.8398 0010033 080.3781 279.8566 14.83011421823667
Epoch (UTC): 18 June 2018 16:29:31
Eccentricity: 0.0010033
inclination: 97.6488°
perigee height: 613 km
apogee height: 627 km
right ascension of ascending node: 205.8398°
argument of perigee: 80.3781°
revolutions per day: 14.83011421
mean anomaly at epoch: 279.8566°
orbit number at epoch: 82366

The dashed part of the orbit path shows where the satellite is in the earth's shadow,  

DLR